Find Local Weather

World > North America > United States > Pennsylvania

Lancaster, Pennsylvania Regional Weather

Lat: 40.04N, Lon: 76.3W
Wx Zone: PAZ066
Feedback
Expires:201901221000;;739742
ASUS41 KPHI 220912
RWRPHI

REGIONAL WEATHER ROUNDUP
NATIONAL WEATHER SERVICE MOUNT HOLLY NJ
400 AM EST TUE JAN 22 2019

NOTE:  "FAIR" INDICATES FEW OR NO CLOUDS BELOW 12,000 FEET WITH NO
SIGNIFICANT WEATHER AND/OR OBSTRUCTIONS TO VISIBILITY.

 * = STATION DOES NOT REPORT PRECIPITATION (E.G. RAIN, SNOW, ETC.) 
        OR FOG.


PAZ043-044-047-054-055-060>062-066>071-221000-
EASTERN PENNSYLVANIA
  
CITY           SKY/WX    TMP DP  RH WIND       PRES   REMARKS
PHILADELPHIA   FAIR      14  -1  51 W12       30.61R WCI   0          
NORTH PHILA    FAIR      15   0  51 NW13      30.59R WCI   1          
BLUE BELL*     FAIR      12   1  62 W9        30.58R WCI   0          
DOYLESTOWN     FAIR      11  -1  58 NW8       30.54R WCI  -1          
QUAKERTOWN*    CLEAR     10   0  61 VRB7      30.55  WCI   0          
PERKASIE*      FAIR      10   0  61 W12G18    30.54R WCI  -4          
POTTSTOWN      FAIR      10  -1  61 W6        30.60R WCI   0          
LANCASTER      FAIR      13   2  61 W9        30.61R WCI   1          
COATESVILLE    FAIR      10   1  67 W13       30.58R WCI  -5          
READING        FAIR      12   2  64 W12       30.61R WCI  -2          
ALLENTOWN      FAIR      12   0  58 W8        30.56R WCI   0          
MOUNT POCONO   MOCLDY     2   0  91 NW18G28   30.35R WCI -19          
HAZLETON       FAIR       3  -4  72 W6        30.49R WCI  -8          
LEHIGHTON      FAIR      10   1  67 CALM      30.58R                  
WILKES BARRE   CLOUDY     8   1  73 NW7       30.52R WCI  -3          

$$

SKY/WX - Weather  TMP - Temperature  DP - Dew Point  RH - Relative Humidity
WIND - Wind Direction/Speed PRES - Barometric Pressure